Regional Weather Roundup
Issued by NWS Charleston, SC

Current Version | Previous Version | Text Only | Print | Product List | Glossary Off
Versions: 1 2 3 4 5 6 7 8 9 10 11 12 13 14 15 16 17 18 19 20 21 22 23 24 25 26 27 28 29 30 31 32 33 34 35 36 37 38 39 40 41 42 43 44 45 46 47 48 49 50
000 ASUS42 KCHS 011528 RWRCHS REGIONAL WEATHER ROUNDUP NATIONAL WEATHER SERVICE CHARLESTON SC 1100 AM EDT SAT OCT 01 2016 NOTE: "FAIR" INDICATES FEW OR NO CLOUDS BELOW 12,000 FEET WITH NO SIGNIFICANT WEATHER AND/OR OBSTRUCTIONS TO VISIBILITY. NOT ALL STATIONS ARE QUALITY CONTROLLED. USE DATA WITH CAUTION... ESPECIALLY DEWPOINT OBSERVATIONS. SCZ027-030-031-034>040-042>050-011600- ...SOUTHEAST SOUTH CAROLINA... CITY SKY/WX TMP DP RH WIND PRES REMARKS N CHARLESTON MOSUNNY 81 62 52 E6 30.06F WATERFRONT PRK N/A 78 65 63 N5 30.05F MOUNT PLEASANT FAIR 81 70 69 E3 30.06F JOHNS ISLAND FAIR 81 70 69 NE8G14 30.06F PINOPOLIS N/A 73 59 60 CALM 30.01S MONCKS CORNER FAIR 79 59 50 CALM 30.07F SUMMERVILLE FAIR 79 61 53 N3 30.08S BEAUFORT MCAS N/A 78 57 48 CALM 30.08F BEAUFORT ARPT FAIR 77 55 47 NE6 30.06F HILTON HEAD IS MOSUNNY 81 61 50 N7 30.08F WALTERBORO MOSUNNY 79 59 50 CALM 30.08F ALLENDALE FAIR 77 52 41 CALM 30.08F ...SOUTHERN MIDLANDS AND PEE DEE... CITY SKY/WX TMP DP RH WIND PRES REMARKS GEORGETOWN FAIR 79 68 69 E5 30.08F KINGSTREE PTSUNNY 79 52 38 CALM 30.08S ORANGEBURG SUNNY 76 54 46 SE3 30.09F BARNWELL NOT AVBL AIKEN FAIR 73 50 43 W5 30.13F MANNING FAIR 77 57 50 CALM 30.08F COLUMBIA MOSUNNY 76 55 48 CALM 30.09S SUMTER SUNNY 76 56 48 S3 30.06F FLORENCE SUNNY 78 57 48 CALM 30.09F MYRTLE BEACH PTSUNNY 79 64 61 S12 30.08 N MYRTLE BEACH CLOUDY 77 70 79 SE8 30.07F $$ GAZ063-065-086>088-099>101-113>116-118-119-134>141-150-011600- ...SOUTHEAST GEORGIA... CITY SKY/WX TMP DP RH WIND PRES REMARKS SAVANNAH ARPT PTSUNNY 76 54 46 N5 30.09S HUNTER AAF SUNNY 78 62 57 NE5 30.06F FORT STEWART SUNNY 76 55 47 NE2 30.07S STATESBORO SUNNY 78 58 49 NE3 30.10S SYLVANIA NOT AVBL CLAXTON FAIR 78 57 49 NE6 30.10S ...CSRA...CENTRAL AND FAR SOUTHEAST GEORGIA... CITY SKY/WX TMP DP RH WIND PRES REMARKS THOMSON SUNNY 76 52 42 W3 30.15S AUGUSTA-BUSH SUNNY 74 54 49 NE3 30.10S AUGUSTA-DANIEL SUNNY 75 45 34 CALM 30.12R SWAINSBORO FAIR 77 48 36 CALM 30.12R VIDALIA SUNNY 77 59 53 E3 30.11S EASTMAN FAIR 77 31 18 CALM 30.14S HAZLEHURST FAIR 77 54 45 SW3 30.10S ALMA SUNNY 77 52 41 VRB5 30.10S WAYCROSS SUNNY 80 57 44 NE3 30.09F JESUP FAIR 79 61 53 NE5 30.09S BAXLEY FAIR 79 55 44 CALM 30.09F BRUNSWICK MOSUNNY 81 61 50 NE6 30.08F SAINT SIMONS MOSUNNY 79 59 50 N6 30.07S $$ SCZ027-028-034-036>038-045-046-048>050-GAZ119-141-011600- ...LAKE AND SUPPLEMENTAL COASTAL OBSERVATIONS... STATION/POSITION TIME TEMP WIND PRES WAVE SWELL AIR SEA DIR/SP/G HT/PER HT/PER/DIR (UTC) (F) (DEG/KT/KT) (MB) (FT/S) (FT/S/D) WINYAH BAY 1430 77 130/ 8 1018.0S LAKE MURRAY 1450 74 180/ 4/ 5 1018.6S ACE BASIN NERRS 1445 79 10/ 2 1019.0S FORT PULASKI 1500 77 81 10/ 7/ 8 1018.7 SAPELO ISLAND 1500 80 10/ 8 1018.0 $$ ANZ835-935-AMZ111-154-330-350-352-354-370-450-454-472-011600- ...C-MAN AND BUOY OBSERVATIONS... STATION/POSITION TIME TEMP WIND PRES WAVE SWELL AIR SEA DIR/SP/G HT/PER HT/PER/DIR (UTC) (F) (DEG/KT/KT) (MB) (FT/S) (FT/S/D) BUOY 41004 1450 79 82 100/ 8/ 12 1017.2R 3/10 2/ 80/10 BUOY 41008 1450 79 82 30/ 12/ 16 1017.6S 2/ 4 2/100/10 FOLLY BEACH CMAN 1500 78 50/ 7/ 8 1018.0F CAPERS NEARSHORE 1508 79 81 80/ 8/ 14 1017.7F FRIPP NEARSHORE 1408 78 81 40/ 12/ 14 1018.3R STATION/POSITION TIME TEMP WIND PRES WAVE SWELL AIR SEA DIR/SP/G HT/PER HT/PER/DIR (UTC) (F) (DEG/KT/KT) (MB) (FT/S) (FT/S/D) 5E ST. MARYS GA 1401 82 N/A 3/10 FRYING PAN BUOY 1500 78 82 150/ 10/ 14 1018.1 BUOY 41025 1450 80 82 200/ 14/ 16 1018.4R 6/10 3/ 50/10 CAPE LOOKOUT NC 1500 79 210/ 7/ 11 1018.5R BUOY 41002 1450 74 83 210/ 10/ 14 1020.8R 6/11 7/ 30/11 BUOY 41010 NOT AVBL ST AUGUSTINE FL 1500 78 83 360/ 5/ 6 1018.7F $$

USA.gov is the U.S. government's official web portal to all federal, state and local government web resources and services.